Year,Month,Day,Hour,Minute,Value (Times are PST for temperature in C)
2019,09,28,00,00,9.80
2019,09,28,00,01,9.80
2019,09,28,00,02,9.80
2019,09,28,00,03,9.80
2019,09,28,00,04,9.80
2019,09,28,00,05,9.80
2019,09,28,00,06,9.80
2019,09,28,00,07,9.80
2019,09,28,00,08,9.80
2019,09,28,00,09,9.80
2019,09,28,00,10,9.80
2019,09,28,00,11,9.70
2019,09,28,00,12,9.70
2019,09,28,00,13,9.80
2019,09,28,00,14,9.80
2019,09,28,00,15,9.80
2019,09,28,00,16,9.80
2019,09,28,00,17,9.80
2019,09,28,00,18,9.80
2019,09,28,00,19,9.80
2019,09,28,00,20,9.80
2019,09,28,00,21,9.80
2019,09,28,00,22,9.80
2019,09,28,00,23,9.80
2019,09,28,00,24,9.80
2019,09,28,00,25,9.80
2019,09,28,00,26,9.80
2019,09,28,00,27,9.80
2019,09,28,00,28,9.80
2019,09,28,00,29,9.80
2019,09,28,00,30,9.80
2019,09,28,00,31,9.80
2019,09,28,00,32,9.80
2019,09,28,00,33,9.80
2019,09,28,00,34,9.80
2019,09,28,00,35,9.80
2019,09,28,00,36,9.80
2019,09,28,00,37,9.80
2019,09,28,00,38,9.80
2019,09,28,00,39,9.80
2019,09,28,00,40,9.80
2019,09,28,00,41,9.80
2019,09,28,00,42,9.80
2019,09,28,00,43,9.90
2019,09,28,00,44,9.90
2019,09,28,00,45,9.90
2019,09,28,00,46,9.90
2019,09,28,00,47,9.90
2019,09,28,00,48,9.90
2019,09,28,00,49,9.90
2019,09,28,00,50,9.90
2019,09,28,00,51,9.90
2019,09,28,00,52,9.90
2019,09,28,00,53,9.90
2019,09,28,00,54,9.90
2019,09,28,00,55,9.90
2019,09,28,00,56,9.90
2019,09,28,00,57,9.90
2019,09,28,00,58,9.90
2019,09,28,00,59,9.90
2019,09,28,01,00,9.90
2019,09,28,01,01,10.00
2019,09,28,01,02,9.90
2019,09,28,01,03,9.90
2019,09,28,01,04,9.90
2019,09,28,01,05,9.90
2019,09,28,01,06,9.90
2019,09,28,01,07,9.90
2019,09,28,01,08,9.90
2019,09,28,01,09,9.90
2019,09,28,01,10,9.90
2019,09,28,01,11,9.90
2019,09,28,01,12,9.80
2019,09,28,01,13,9.90
2019,09,28,01,14,9.80
2019,09,28,01,15,9.80
2019,09,28,01,16,9.80
2019,09,28,01,17,9.80
2019,09,28,01,18,9.80
2019,09,28,01,19,9.80
2019,09,28,01,20,9.80
2019,09,28,01,21,9.80
2019,09,28,01,22,9.80
2019,09,28,01,23,9.80
2019,09,28,01,24,9.70
2019,09,28,01,25,9.70
2019,09,28,01,26,9.70
2019,09,28,01,27,9.70
2019,09,28,01,28,9.70
2019,09,28,01,29,9.70
2019,09,28,01,30,9.70
2019,09,28,01,31,9.70
2019,09,28,01,32,9.70
2019,09,28,01,33,9.70
2019,09,28,01,34,9.70
2019,09,28,01,35,9.70
2019,09,28,01,36,9.70
2019,09,28,01,37,9.70
2019,09,28,01,38,9.70
2019,09,28,01,39,9.70
2019,09,28,01,40,9.70
2019,09,28,01,41,9.70
2019,09,28,01,42,9.70
2019,09,28,01,43,9.70
2019,09,28,01,44,9.70
2019,09,28,01,45,9.70
2019,09,28,01,46,9.70
2019,09,28,01,47,9.70
2019,09,28,01,48,9.70
2019,09,28,01,49,9.70
2019,09,28,01,50,9.70
2019,09,28,01,51,9.70
2019,09,28,01,52,9.70
2019,09,28,01,53,9.70
2019,09,28,01,54,9.70
2019,09,28,01,55,9.70
2019,09,28,01,56,9.70
2019,09,28,01,57,9.70
2019,09,28,01,58,9.70
2019,09,28,01,59,9.70
2019,09,28,02,00,9.70
2019,09,28,02,01,9.70
2019,09,28,02,02,9.70
2019,09,28,02,03,9.70
2019,09,28,02,04,9.80
2019,09,28,02,05,9.70
2019,09,28,02,06,9.80
2019,09,28,02,07,9.70
2019,09,28,02,08,9.70
2019,09,28,02,09,9.70
2019,09,28,02,10,9.70
2019,09,28,02,11,9.70
2019,09,28,02,12,9.80
2019,09,28,02,13,9.80
2019,09,28,02,14,9.80
2019,09,28,02,15,9.80
2019,09,28,02,16,9.80
2019,09,28,02,17,9.80
2019,09,28,02,18,9.70
2019,09,28,02,19,9.70
2019,09,28,02,20,9.70
2019,09,28,02,21,9.70
2019,09,28,02,22,9.70
2019,09,28,02,23,9.70
2019,09,28,02,24,9.70
2019,09,28,02,25,9.70
2019,09,28,02,26,9.60
2019,09,28,02,27,9.60
2019,09,28,02,28,9.60
2019,09,28,02,29,9.60
2019,09,28,02,30,9.60
2019,09,28,02,31,9.60
2019,09,28,02,32,9.60
2019,09,28,02,33,9.60
2019,09,28,02,34,9.60
2019,09,28,02,35,9.60
2019,09,28,02,36,9.60
2019,09,28,02,37,9.60
2019,09,28,02,38,9.60
2019,09,28,02,39,9.60
2019,09,28,02,40,9.50
2019,09,28,02,41,9.50
2019,09,28,02,42,9.50
2019,09,28,02,43,9.50
2019,09,28,02,44,9.50
2019,09,28,02,45,9.50
2019,09,28,02,46,9.50
2019,09,28,02,47,9.50
2019,09,28,02,48,9.50
2019,09,28,02,49,9.50
2019,09,28,02,50,9.50
2019,09,28,02,51,9.50
2019,09,28,02,52,9.50
2019,09,28,02,53,9.50
2019,09,28,02,54,9.50
2019,09,28,02,55,9.50
2019,09,28,02,56,9.50
2019,09,28,02,57,9.40
2019,09,28,02,58,9.50
2019,09,28,02,59,9.50
2019,09,28,03,00,9.40
2019,09,28,03,01,9.40
2019,09,28,03,02,9.40
2019,09,28,03,03,9.40
2019,09,28,03,04,9.50
2019,09,28,03,05,9.50
2019,09,28,03,06,9.50
2019,09,28,03,07,9.50
2019,09,28,03,08,9.40
2019,09,28,03,09,9.40
2019,09,28,03,10,9.40
2019,09,28,03,11,9.40
2019,09,28,03,12,9.40
2019,09,28,03,13,9.40
2019,09,28,03,14,9.40
2019,09,28,03,15,9.40
2019,09,28,03,16,9.40
2019,09,28,03,17,9.40
2019,09,28,03,18,9.40
2019,09,28,03,19,9.40
2019,09,28,03,20,9.40
2019,09,28,03,21,9.40
2019,09,28,03,22,9.40
2019,09,28,03,23,9.40
2019,09,28,03,24,9.40
2019,09,28,03,25,9.40
2019,09,28,03,26,9.40
2019,09,28,03,27,9.50
2019,09,28,03,28,9.50
2019,09,28,03,29,9.50
2019,09,28,03,30,9.50
2019,09,28,03,31,9.50
2019,09,28,03,32,9.50
2019,09,28,03,33,9.40
2019,09,28,03,34,9.40
2019,09,28,03,35,9.40
2019,09,28,03,36,9.40
2019,09,28,03,37,9.40
2019,09,28,03,38,9.40
2019,09,28,03,39,9.40
2019,09,28,03,40,9.40
2019,09,28,03,41,9.40
2019,09,28,03,42,9.40
2019,09,28,03,43,9.40
2019,09,28,03,44,9.40
2019,09,28,03,45,9.40
2019,09,28,03,46,9.40
2019,09,28,03,47,9.40
2019,09,28,03,48,9.40
2019,09,28,03,49,9.40
2019,09,28,03,50,9.40
2019,09,28,03,51,9.40
2019,09,28,03,52,9.40
2019,09,28,03,53,9.40
2019,09,28,03,54,9.40
2019,09,28,03,55,9.40
2019,09,28,03,56,9.40
2019,09,28,03,57,9.40
2019,09,28,03,58,9.40
2019,09,28,03,59,9.40
2019,09,28,04,00,9.40
2019,09,28,04,01,9.40
2019,09,28,04,02,9.40
2019,09,28,04,03,9.40
2019,09,28,04,04,9.40
2019,09,28,04,05,9.40
2019,09,28,04,06,9.40
2019,09,28,04,07,9.50
2019,09,28,04,08,9.40
2019,09,28,04,09,9.50
2019,09,28,04,10,9.50
2019,09,28,04,11,9.50
2019,09,28,04,12,9.50
2019,09,28,04,13,9.50
2019,09,28,04,14,9.50
2019,09,28,04,15,9.50
2019,09,28,04,16,9.50
2019,09,28,04,17,9.50
2019,09,28,04,18,9.50
2019,09,28,04,19,9.50
2019,09,28,04,20,9.50
2019,09,28,04,21,9.50
2019,09,28,04,22,9.50
2019,09,28,04,23,9.60
2019,09,28,04,24,9.60
2019,09,28,04,25,9.60
2019,09,28,04,26,9.60
2019,09,28,04,27,9.60
2019,09,28,04,28,9.60
2019,09,28,04,29,9.60
2019,09,28,04,30,9.50
2019,09,28,04,31,9.50
2019,09,28,04,32,9.50
2019,09,28,04,33,9.50
2019,09,28,04,34,9.50
2019,09,28,04,35,9.50
2019,09,28,04,36,9.40
2019,09,28,04,37,9.50
2019,09,28,04,38,9.40
2019,09,28,04,39,9.40
2019,09,28,04,40,9.50
2019,09,28,04,41,9.50
2019,09,28,04,42,9.50
2019,09,28,04,43,9.40
2019,09,28,04,44,9.40
2019,09,28,04,45,9.40
2019,09,28,04,46,9.40
2019,09,28,04,47,9.40
2019,09,28,04,48,9.40
2019,09,28,04,49,9.40
2019,09,28,04,50,9.40
2019,09,28,04,51,9.40
2019,09,28,04,52,9.40
2019,09,28,08,49,10.10
2019,09,28,08,50,10.10
2019,09,28,08,51,10.10
2019,09,28,08,52,10.10
2019,09,28,08,53,10.10
2019,09,28,08,54,10.20
2019,09,28,08,55,10.20
2019,09,28,08,56,10.20
2019,09,28,08,57,10.20
2019,09,28,08,58,10.20
2019,09,28,08,59,10.30
2019,09,28,09,00,10.30
2019,09,28,09,01,10.30
2019,09,28,09,02,10.40
2019,09,28,09,03,10.40
2019,09,28,09,04,10.40
2019,09,28,09,05,10.40
2019,09,28,09,06,10.50
2019,09,28,09,07,10.50
2019,09,28,09,08,10.50
2019,09,28,09,09,10.60
2019,09,28,09,10,10.60
2019,09,28,09,11,10.60
2019,09,28,09,12,10.70
2019,09,28,09,13,10.70
2019,09,28,09,14,10.70
2019,09,28,09,15,10.70
2019,09,28,09,16,10.70
2019,09,28,09,17,10.70
2019,09,28,09,18,10.70
2019,09,28,09,19,10.70
2019,09,28,09,20,10.70
2019,09,28,09,21,10.80
2019,09,28,09,22,10.80
2019,09,28,09,23,10.80
2019,09,28,09,24,10.80
2019,09,28,09,25,10.80
2019,09,28,09,26,10.80
2019,09,28,09,27,10.80
2019,09,28,09,28,10.80
2019,09,28,09,29,10.90
2019,09,28,09,30,10.90
2019,09,28,09,31,10.90
2019,09,28,09,32,10.90
2019,09,28,09,33,10.90
2019,09,28,09,34,10.90
2019,09,28,09,35,10.90
2019,09,28,09,36,10.90
2019,09,28,09,37,10.90
2019,09,28,09,38,10.90
2019,09,28,09,39,11.00
2019,09,28,09,40,11.00
2019,09,28,09,41,11.00
2019,09,28,09,42,11.10
2019,09,28,09,43,11.10
2019,09,28,09,44,11.20
2019,09,28,09,45,11.20
2019,09,28,09,46,11.20
2019,09,28,09,47,11.20
2019,09,28,09,48,11.30
2019,09,28,09,49,11.30
2019,09,28,09,50,11.30
2019,09,28,09,51,11.30
2019,09,28,09,52,11.40
2019,09,28,09,53,11.40
2019,09,28,09,54,11.50
2019,09,28,09,55,11.60
2019,09,28,09,56,11.70
2019,09,28,09,57,11.70
2019,09,28,09,58,11.70
2019,09,28,09,59,11.80
2019,09,28,10,00,11.80
2019,09,28,10,01,11.90
2019,09,28,10,02,12.00
2019,09,28,10,03,12.00
2019,09,28,10,04,12.10
2019,09,28,10,05,12.10
2019,09,28,10,06,12.20
2019,09,28,10,07,12.20
2019,09,28,10,08,12.20
2019,09,28,10,09,12.20
2019,09,28,10,10,12.20
2019,09,28,10,11,12.20
2019,09,28,10,12,12.20
2019,09,28,10,13,12.30
2019,09,28,10,14,12.30
2019,09,28,10,15,12.30
2019,09,28,10,16,12.30
2019,09,28,10,17,12.30
2019,09,28,10,18,12.30
2019,09,28,10,19,12.30
2019,09,28,10,20,12.40
2019,09,28,10,21,12.40
2019,09,28,10,22,12.50
2019,09,28,10,23,12.50
2019,09,28,10,24,12.60
2019,09,28,10,25,12.60
2019,09,28,10,26,12.70
2019,09,28,10,27,12.70
2019,09,28,10,28,12.70
2019,09,28,10,29,12.80
2019,09,28,10,30,12.80
2019,09,28,10,31,12.80
2019,09,28,10,32,12.80
2019,09,28,10,33,12.90
2019,09,28,10,34,12.90
2019,09,28,10,35,12.90
2019,09,28,10,36,13.00
2019,09,28,10,37,13.00
2019,09,28,10,38,13.10
2019,09,28,10,39,13.10
2019,09,28,10,40,13.10
2019,09,28,10,41,13.10
2019,09,28,10,42,13.10
2019,09,28,10,43,13.20
2019,09,28,10,44,13.20
2019,09,28,10,45,13.20
2019,09,28,10,46,13.20
2019,09,28,10,47,13.30
2019,09,28,10,48,13.30
2019,09,28,10,49,13.30
2019,09,28,10,50,13.30
2019,09,28,10,51,13.30
2019,09,28,10,52,13.30
2019,09,28,10,53,13.40
2019,09,28,10,54,13.40
2019,09,28,10,55,13.40
2019,09,28,10,56,13.40
2019,09,28,10,57,13.40
2019,09,28,10,58,13.50
2019,09,28,10,59,13.50
2019,09,28,11,00,13.60
2019,09,28,11,01,13.60
2019,09,28,11,02,13.60
2019,09,28,11,03,13.70
2019,09,28,11,04,13.70
2019,09,28,11,05,13.70
2019,09,28,11,06,13.70
2019,09,28,11,07,13.80
2019,09,28,11,08,13.80
2019,09,28,11,09,13.80
2019,09,28,11,10,13.80
2019,09,28,11,11,13.80
2019,09,28,11,12,13.90
2019,09,28,11,13,13.90
2019,09,28,11,14,13.90
2019,09,28,11,15,13.90
2019,09,28,11,16,13.90
2019,09,28,11,17,13.90
2019,09,28,11,18,13.90
2019,09,28,11,19,14.00
2019,09,28,11,20,14.00
2019,09,28,11,21,14.10
2019,09,28,11,22,14.00
2019,09,28,11,23,14.00
2019,09,28,11,24,13.90
2019,09,28,11,25,13.90
2019,09,28,11,26,13.90
2019,09,28,11,27,14.00
2019,09,28,11,28,14.00
2019,09,28,11,29,14.00
2019,09,28,11,30,14.00
2019,09,28,11,31,14.00
2019,09,28,11,32,14.00
2019,09,28,11,33,14.00
2019,09,28,11,34,14.00
2019,09,28,11,35,13.90
2019,09,28,11,36,13.90
2019,09,28,11,37,13.90
2019,09,28,11,38,13.90
2019,09,28,11,39,13.90
2019,09,28,11,40,14.00
2019,09,28,11,41,14.00
2019,09,28,11,42,14.10
2019,09,28,11,43,14.10
2019,09,28,11,44,14.10
2019,09,28,11,45,14.10
2019,09,28,11,46,14.10
2019,09,28,11,47,14.10
2019,09,28,11,48,14.10
2019,09,28,11,49,14.10
2019,09,28,11,50,14.10
2019,09,28,11,51,14.10
2019,09,28,11,52,14.10
2019,09,28,11,53,14.10
2019,09,28,11,54,14.10
2019,09,28,11,55,14.10
2019,09,28,11,56,14.10
2019,09,28,11,57,14.10
2019,09,28,11,58,14.20
2019,09,28,11,59,14.20
2019,09,28,12,00,14.20
2019,09,28,12,01,14.30
2019,09,28,12,02,14.30
2019,09,28,12,03,14.30
2019,09,28,12,04,14.30
2019,09,28,12,05,14.30
2019,09,28,12,06,14.30
2019,09,28,12,07,14.30
2019,09,28,12,08,14.30
2019,09,28,12,09,14.30
2019,09,28,12,10,14.30
2019,09,28,12,11,14.30
2019,09,28,12,12,14.30
2019,09,28,12,13,14.30
2019,09,28,12,14,14.30
2019,09,28,12,15,14.30
2019,09,28,12,16,14.30
2019,09,28,12,17,14.30
2019,09,28,12,18,14.30
2019,09,28,12,19,14.30
2019,09,28,12,20,14.40
2019,09,28,12,21,14.40
2019,09,28,12,22,14.40
2019,09,28,12,23,14.50
2019,09,28,12,24,14.50
2019,09,28,12,25,14.60
2019,09,28,12,26,14.60
2019,09,28,12,27,14.60
2019,09,28,12,28,14.60
2019,09,28,12,29,14.60
2019,09,28,12,30,14.50
2019,09,28,12,31,14.50
2019,09,28,12,32,14.50
2019,09,28,12,33,14.50
2019,09,28,12,34,14.50
2019,09,28,12,35,14.50
2019,09,28,12,36,14.60
2019,09,28,12,37,14.60
2019,09,28,12,38,14.60
2019,09,28,12,39,14.70
2019,09,28,12,40,14.70
2019,09,28,12,41,14.70
2019,09,28,12,42,14.70
2019,09,28,12,43,14.80
2019,09,28,12,44,14.70
2019,09,28,12,45,14.70
2019,09,28,12,46,14.70
2019,09,28,12,47,14.70
2019,09,28,12,48,14.70
2019,09,28,12,49,14.70
2019,09,28,12,50,14.70
2019,09,28,12,51,14.70
2019,09,28,12,52,14.70
2019,09,28,12,53,14.70
2019,09,28,12,54,14.70
2019,09,28,12,55,14.70
2019,09,28,12,56,14.80
2019,09,28,12,57,14.80
2019,09,28,12,58,14.80
2019,09,28,12,59,14.80
2019,09,28,13,00,14.80
2019,09,28,13,01,14.80
2019,09,28,13,02,14.80
2019,09,28,13,03,14.80
2019,09,28,13,04,14.80
2019,09,28,13,05,14.80
2019,09,28,13,06,14.80
2019,09,28,13,07,14.80
2019,09,28,13,08,14.80
2019,09,28,13,09,14.80
2019,09,28,13,10,14.90
2019,09,28,13,11,14.90
2019,09,28,13,12,14.90
2019,09,28,13,13,14.90
2019,09,28,13,14,14.90
2019,09,28,13,15,14.90
2019,09,28,13,16,14.90
2019,09,28,13,17,14.90
2019,09,28,13,18,14.90
2019,09,28,13,19,14.90
2019,09,28,13,20,15.00
2019,09,28,13,21,15.00
2019,09,28,13,22,15.00
2019,09,28,13,23,14.90
2019,09,28,13,24,14.90
2019,09,28,13,25,14.90
2019,09,28,13,26,15.00
2019,09,28,13,27,15.00
2019,09,28,13,28,15.10
2019,09,28,13,29,15.10
2019,09,28,13,30,15.10
2019,09,28,13,31,15.10
2019,09,28,13,32,15.10
2019,09,28,13,33,15.10
2019,09,28,13,34,15.10
2019,09,28,13,35,15.10
2019,09,28,13,36,15.10
2019,09,28,13,37,15.10
2019,09,28,13,38,15.10
2019,09,28,13,39,15.10
2019,09,28,13,40,15.10
2019,09,28,13,41,15.10
2019,09,28,13,42,15.10
2019,09,28,13,43,15.20
2019,09,28,13,44,15.20
2019,09,28,13,45,15.20
2019,09,28,13,46,15.20
2019,09,28,13,47,15.20
2019,09,28,13,48,15.20
2019,09,28,13,49,15.30
2019,09,28,13,50,15.30
2019,09,28,13,51,15.30
2019,09,28,13,52,15.30
2019,09,28,13,53,15.30
2019,09,28,13,54,15.40
2019,09,28,13,55,15.40
2019,09,28,13,56,15.40
2019,09,28,13,57,15.40
2019,09,28,13,58,15.40
2019,09,28,13,59,15.30
2019,09,28,14,00,15.30
2019,09,28,14,01,15.30
2019,09,28,14,02,15.20
2019,09,28,14,03,15.20
2019,09,28,14,04,15.20
2019,09,28,14,05,15.20
2019,09,28,14,06,15.20
2019,09,28,14,07,15.20
2019,09,28,14,08,15.20
2019,09,28,14,09,15.20
2019,09,28,14,10,15.20
2019,09,28,14,11,15.20
2019,09,28,14,12,15.20
2019,09,28,14,13,15.10
2019,09,28,14,14,15.10
2019,09,28,14,15,15.00
2019,09,28,14,16,15.00
2019,09,28,14,17,15.00
2019,09,28,14,18,15.00
2019,09,28,14,19,15.00
2019,09,28,14,20,15.00
2019,09,28,14,21,15.00
2019,09,28,14,22,15.10
2019,09,28,14,23,15.10
2019,09,28,14,24,15.10
2019,09,28,14,25,15.10
2019,09,28,14,26,15.10
2019,09,28,14,27,15.10
2019,09,28,14,28,15.10
2019,09,28,14,29,15.20
2019,09,28,14,30,15.20
2019,09,28,14,31,15.20
2019,09,28,14,32,15.20
2019,09,28,14,33,15.30
2019,09,28,14,34,15.30
2019,09,28,14,35,15.30
2019,09,28,14,36,15.30
2019,09,28,14,37,15.30
2019,09,28,14,38,15.30
2019,09,28,14,39,15.30
2019,09,28,14,40,15.30
2019,09,28,14,41,15.30
2019,09,28,14,42,15.30
2019,09,28,14,43,15.40
2019,09,28,14,44,15.30
2019,09,28,14,45,15.30
2019,09,28,14,46,15.30
2019,09,28,14,47,15.30
2019,09,28,14,48,15.40
2019,09,28,14,49,15.40
2019,09,28,14,50,15.40
2019,09,28,14,51,15.50
2019,09,28,14,52,15.50
2019,09,28,14,53,15.50
2019,09,28,14,54,15.50
2019,09,28,14,55,15.50
2019,09,28,14,56,15.60
2019,09,28,14,57,15.60
2019,09,28,14,58,15.60
2019,09,28,14,59,15.60
2019,09,28,15,00,15.60
2019,09,28,15,01,15.60
2019,09,28,15,02,15.60
2019,09,28,15,03,15.60
2019,09,28,15,04,15.70
2019,09,28,15,05,15.70
2019,09,28,15,06,15.70
2019,09,28,15,07,15.70
2019,09,28,15,08,15.70
2019,09,28,15,09,15.70
2019,09,28,15,10,15.70
2019,09,28,15,11,15.70
2019,09,28,15,12,15.70
2019,09,28,15,13,15.60
2019,09,28,15,14,15.60
2019,09,28,15,15,15.60
2019,09,28,15,16,15.70
2019,09,28,15,17,15.70
2019,09,28,15,18,15.70
2019,09,28,15,19,15.70
2019,09,28,15,20,15.70
2019,09,28,15,21,15.80
2019,09,28,15,22,15.80
2019,09,28,15,23,15.80
2019,09,28,15,24,15.80
2019,09,28,15,25,15.80
2019,09,28,15,26,15.80
2019,09,28,15,27,15.80
2019,09,28,15,28,15.80
2019,09,28,15,29,15.80
2019,09,28,15,30,15.80
2019,09,28,15,31,15.80
2019,09,28,15,32,15.80
2019,09,28,15,33,15.80
2019,09,28,15,34,15.80
2019,09,28,15,35,15.80
2019,09,28,15,36,15.80
2019,09,28,15,37,15.80
2019,09,28,15,38,15.80
2019,09,28,15,39,15.80
2019,09,28,15,40,15.80
2019,09,28,15,41,15.80
2019,09,28,15,42,15.90
2019,09,28,15,43,15.90
2019,09,28,15,44,15.90
2019,09,28,15,45,15.90
2019,09,28,15,46,15.90
2019,09,28,15,47,16.00
2019,09,28,15,48,16.00
2019,09,28,15,49,16.00
2019,09,28,15,50,16.10
2019,09,28,15,51,16.00
2019,09,28,15,52,16.00
2019,09,28,15,53,16.00
2019,09,28,15,54,15.90
2019,09,28,15,55,15.90
2019,09,28,15,56,15.90
2019,09,28,15,57,15.90
2019,09,28,15,58,15.90
2019,09,28,15,59,15.90
2019,09,28,16,00,15.90
2019,09,28,16,01,15.90
2019,09,28,16,02,15.90
2019,09,28,16,03,15.80
2019,09,28,16,04,15.80
2019,09,28,16,05,15.80
2019,09,28,16,06,15.80
2019,09,28,16,07,15.80
2019,09,28,16,08,15.80
2019,09,28,16,09,15.80
2019,09,28,16,10,15.80
2019,09,28,16,11,15.80
2019,09,28,16,12,15.80
2019,09,28,16,13,15.80
2019,09,28,16,14,15.80
2019,09,28,16,15,15.90
2019,09,28,16,16,15.90
2019,09,28,16,17,15.90
2019,09,28,16,18,15.90
2019,09,28,16,19,15.90
2019,09,28,16,20,15.90
2019,09,28,16,21,15.90
2019,09,28,16,22,15.90
2019,09,28,16,23,15.90
2019,09,28,16,24,16.00
2019,09,28,16,25,16.00
2019,09,28,16,26,16.00
2019,09,28,16,27,16.00
2019,09,28,16,28,16.10
2019,09,28,16,29,16.10
2019,09,28,16,30,16.10
2019,09,28,16,31,16.10
2019,09,28,16,32,16.00
2019,09,28,16,33,16.00
2019,09,28,16,34,15.90
2019,09,28,16,35,15.90
2019,09,28,16,36,15.90
2019,09,28,16,37,16.00
2019,09,28,16,38,16.00
2019,09,28,16,39,16.00
2019,09,28,16,40,16.10
2019,09,28,16,41,16.00
2019,09,28,16,42,16.00
2019,09,28,16,43,16.00
2019,09,28,16,44,16.00
2019,09,28,16,45,16.00
2019,09,28,16,46,16.00
2019,09,28,16,47,16.00
2019,09,28,16,48,16.00
2019,09,28,16,49,16.00
2019,09,28,16,50,16.00
2019,09,28,16,51,16.00
2019,09,28,16,52,16.00
2019,09,28,16,53,16.00
2019,09,28,16,54,16.10
2019,09,28,16,55,16.10
2019,09,28,16,56,16.10
2019,09,28,16,57,16.10
2019,09,28,16,58,16.10
2019,09,28,16,59,16.00
2019,09,28,17,00,16.00
2019,09,28,17,01,15.90
2019,09,28,17,02,15.90
2019,09,28,17,03,15.90
2019,09,28,17,04,15.90
2019,09,28,17,05,15.90
2019,09,28,17,06,15.90
2019,09,28,17,07,15.90
2019,09,28,17,08,15.90
2019,09,28,17,09,15.90
2019,09,28,17,10,15.90
2019,09,28,17,11,15.90
2019,09,28,17,12,15.90
2019,09,28,17,13,15.90
2019,09,28,17,14,15.90
2019,09,28,17,15,15.90
2019,09,28,17,16,15.90
2019,09,28,17,17,15.90
2019,09,28,17,18,15.90
2019,09,28,17,19,15.90
2019,09,28,17,20,15.90
2019,09,28,17,21,15.80
2019,09,28,17,22,15.80
2019,09,28,17,23,15.80
2019,09,28,17,24,15.80
2019,09,28,17,25,15.80
2019,09,28,17,26,15.80
2019,09,28,17,27,15.70
2019,09,28,17,28,15.70
2019,09,28,17,29,15.70
2019,09,28,17,30,15.70
2019,09,28,17,31,15.70
2019,09,28,17,32,15.70
2019,09,28,17,33,15.70
2019,09,28,17,34,15.70
2019,09,28,17,35,15.70
2019,09,28,17,36,15.70
2019,09,28,17,37,15.60
2019,09,28,17,38,15.60
2019,09,28,17,39,15.60
2019,09,28,17,40,15.60
2019,09,28,17,41,15.60
2019,09,28,17,42,15.60
2019,09,28,17,43,15.60
2019,09,28,17,44,15.60
2019,09,28,17,45,15.50
2019,09,28,17,46,15.50
2019,09,28,17,47,15.50
2019,09,28,17,48,15.50
2019,09,28,17,49,15.50
2019,09,28,17,50,15.50
2019,09,28,17,51,15.50
2019,09,28,17,52,15.50
2019,09,28,17,53,15.50
2019,09,28,17,54,15.40
2019,09,28,17,55,15.40
2019,09,28,17,56,15.40
2019,09,28,17,57,15.40
2019,09,28,17,58,15.40
2019,09,28,17,59,15.40
2019,09,28,18,00,15.40
2019,09,28,18,01,15.40
2019,09,28,18,02,15.30
2019,09,28,18,03,15.30
2019,09,28,18,04,15.30
2019,09,28,18,05,15.30
2019,09,28,18,06,15.30
2019,09,28,18,07,15.30
2019,09,28,18,08,15.30
2019,09,28,18,09,15.20
2019,09,28,18,10,15.20
2019,09,28,18,11,15.20
2019,09,28,18,12,15.10
2019,09,28,18,13,15.10
2019,09,28,18,14,15.10
2019,09,28,18,15,15.00
2019,09,28,18,16,15.00
2019,09,28,18,17,15.00
2019,09,28,18,18,14.90
2019,09,28,18,19,14.90
2019,09,28,18,20,14.90
2019,09,28,18,21,14.90
2019,09,28,18,22,14.90
2019,09,28,18,23,14.90
2019,09,28,18,24,14.80
2019,09,28,18,25,14.80
2019,09,28,18,26,14.80
2019,09,28,18,27,14.80
2019,09,28,18,28,14.80
2019,09,28,18,29,14.80
2019,09,28,18,30,14.80
2019,09,28,18,31,14.80
2019,09,28,18,32,14.70
2019,09,28,18,33,14.70
2019,09,28,18,34,14.70
2019,09,28,18,35,14.70
2019,09,28,18,36,14.70
2019,09,28,18,37,14.70
2019,09,28,18,38,14.60
2019,09,28,18,39,14.60
2019,09,28,18,40,14.60
2019,09,28,18,41,14.60
2019,09,28,18,42,14.50
2019,09,28,18,43,14.50
2019,09,28,18,44,14.40
2019,09,28,18,45,14.40
2019,09,28,18,46,14.40
2019,09,28,18,47,14.30
2019,09,28,18,48,14.30
2019,09,28,18,49,14.30
2019,09,28,18,50,14.30
2019,09,28,18,51,14.20
2019,09,28,18,52,14.20
2019,09,28,18,53,14.20
2019,09,28,18,54,14.20
2019,09,28,18,55,14.20
2019,09,28,18,56,14.10
2019,09,28,18,57,14.10
2019,09,28,18,58,14.10
2019,09,28,18,59,14.10
2019,09,28,19,00,14.10
2019,09,28,19,01,14.10
2019,09,28,19,02,14.10
2019,09,28,19,03,14.10
2019,09,28,19,04,14.00
2019,09,28,19,05,14.00
2019,09,28,19,06,14.00
2019,09,28,19,07,14.00
2019,09,28,19,08,13.90
2019,09,28,19,09,13.90
2019,09,28,19,10,13.90
2019,09,28,19,11,13.90
2019,09,28,19,12,13.90
2019,09,28,19,13,13.90
2019,09,28,19,14,13.80
2019,09,28,19,15,13.80
2019,09,28,19,16,13.80
2019,09,28,19,17,13.80
2019,09,28,19,18,13.80
2019,09,28,19,19,13.80
2019,09,28,19,20,13.80
2019,09,28,19,21,13.70
2019,09,28,19,22,13.70
2019,09,28,19,23,13.70
2019,09,28,19,24,13.70
2019,09,28,19,25,13.70
2019,09,28,19,26,13.70
2019,09,28,19,27,13.70
2019,09,28,19,28,13.70
2019,09,28,19,29,13.70
2019,09,28,19,30,13.70
2019,09,28,19,31,13.70
2019,09,28,19,32,13.70
2019,09,28,19,33,13.80
2019,09,28,19,34,13.80
2019,09,28,19,35,13.80
2019,09,28,19,36,13.80
2019,09,28,19,37,13.80
2019,09,28,19,38,13.80
2019,09,28,19,39,13.80
2019,09,28,19,40,13.80
2019,09,28,19,41,13.80
2019,09,28,19,42,13.80
2019,09,28,19,43,13.70
2019,09,28,19,44,13.70
2019,09,28,19,45,13.70
2019,09,28,19,46,13.70
2019,09,28,19,47,13.70
2019,09,28,19,48,13.70
2019,09,28,19,49,13.70
2019,09,28,19,50,13.70
2019,09,28,19,51,13.70
2019,09,28,19,52,13.70
2019,09,28,19,53,13.60
2019,09,28,19,54,13.60
2019,09,28,19,55,13.60
2019,09,28,19,56,13.60
2019,09,28,19,57,13.60
2019,09,28,19,58,13.60
2019,09,28,19,59,13.60
2019,09,28,20,00,13.60
2019,09,28,20,01,13.60
2019,09,28,20,02,13.50
2019,09,28,20,03,13.50
2019,09,28,20,04,13.50
2019,09,28,20,05,13.50
2019,09,28,20,06,13.50
2019,09,28,20,07,13.50
2019,09,28,20,08,13.50
2019,09,28,20,09,13.40
2019,09,28,20,10,13.40
2019,09,28,20,11,13.40
2019,09,28,20,12,13.40
2019,09,28,20,13,13.40
2019,09,28,20,14,13.40
2019,09,28,20,15,13.40
2019,09,28,20,16,13.30
2019,09,28,20,17,13.30
2019,09,28,20,18,13.30
2019,09,28,20,19,13.30
2019,09,28,20,20,13.30
2019,09,28,20,21,13.30
2019,09,28,20,22,13.20
2019,09,28,20,23,13.20
2019,09,28,20,24,13.20
2019,09,28,20,25,13.20
2019,09,28,20,26,13.20
2019,09,28,20,27,13.10
2019,09,28,20,28,13.10
2019,09,28,20,29,13.10
2019,09,28,20,30,13.10
2019,09,28,20,31,13.10
2019,09,28,20,32,13.00
2019,09,28,20,33,13.00
2019,09,28,20,34,13.00
2019,09,28,20,35,12.90
2019,09,28,20,36,12.90
2019,09,28,20,37,12.90
2019,09,28,20,38,12.90
2019,09,28,20,39,12.90
2019,09,28,20,40,12.90
2019,09,28,20,41,12.90
2019,09,28,20,42,12.90
2019,09,28,20,43,12.90
2019,09,28,20,44,12.90
2019,09,28,20,45,12.90
2019,09,28,20,46,12.90
2019,09,28,20,47,12.90
2019,09,28,20,48,12.90
2019,09,28,20,49,12.90
2019,09,28,20,50,12.90
2019,09,28,20,51,13.00
2019,09,28,20,52,12.90
2019,09,28,20,53,12.90
2019,09,28,20,54,12.90
2019,09,28,20,55,12.90
2019,09,28,20,56,12.80
2019,09,28,20,57,12.80
2019,09,28,20,58,12.80
2019,09,28,20,59,12.80
2019,09,28,21,00,12.80
2019,09,28,21,01,12.70
2019,09,28,21,02,12.70
2019,09,28,21,03,12.70
2019,09,28,21,04,12.70
2019,09,28,21,05,12.70
2019,09,28,21,06,12.70
2019,09,28,21,07,12.70
2019,09,28,21,08,12.60
2019,09,28,21,09,12.60
2019,09,28,21,10,12.60
2019,09,28,21,11,12.60
2019,09,28,21,12,12.60
2019,09,28,21,13,12.60
2019,09,28,21,14,12.60
2019,09,28,21,15,12.60
2019,09,28,21,16,12.60
2019,09,28,21,17,12.60
2019,09,28,21,18,12.60
2019,09,28,21,19,12.60
2019,09,28,21,20,12.60
2019,09,28,21,21,12.60
2019,09,28,21,22,12.60
2019,09,28,21,23,12.60
2019,09,28,21,24,12.60
2019,09,28,21,25,12.60
2019,09,28,21,26,12.60
2019,09,28,21,27,12.60
2019,09,28,21,28,12.60